Location: Newark
(21.1200°N, 73.4000°E)
Time: 19:09:14
(UTC+00:00)

Vanguard 1 Rocket - Pass Details

Date: 23 January 2020
Orbit: 650 x 4226 km, 34.3° (Epoch: 19 February)

Event Time Altitude Azimuth Distance (km) Brightness Sun altitude
Rises 15:07:44 0° 277° (W) 8,331 13.3 -31.7°
Reaches altitude 10° 15:16:57 10° 262° (W) 7,430 12.8 -33.8°
Maximum altitude 15:31:10 18° 228° (SW) 6,430 12.1 -37.0°
Drops below altitude 10° 15:43:38 10° 192° (SSW) 6,300 11.8 -39.9°
Sets 15:50:36 0° 174° (S) 6,664 11.8 -41.5°
